Weather in Fedorivka

Ukraine / Zaporizhia Region     47°33′04″N   36°32′54″E
temp.,
°C
wind,
m/s
gust,
m/s
humid.,
%
clouds,
%
prec.,
mm/h
press.,
hPa
HPBL,
m
16 september, thu
thu1600:00+13n33415 0.0 101738
03:00+11nne22485 0.0 101717
06:00+10nne225039 0.0 101719
09:00+16n34362 0.0 1017379
12:00+21n552672 0.0 10171322
15:00+22n442462 0.0 10161681
18:00+20nne33268 0.0 101660
21:00+15ne34370 0.0 101850
17 september, fri
fri1700:00+13ene34440 0.0 101846
03:00+12e33485 0.0 101822
06:00+11e225084 0.0 101811
09:00+17ene22348 0.0 1017320
12:00+22e11245 0.0 10161622
15:00+24w122136 0.0 10142064
18:00+21wnw222786 0.0 101417
21:00+15s3651100 0.0 1015116
18 september, sat
sat1800:00+14ssw3351100 0.0 101438
03:00+14s335293 0.0 101430
06:00+13sse336569 0.0 101438
09:00+20sse464427 0.0 1013558
12:00+24s563199 0.0 10121743
15:00+24ssw763298 0.0 10121858
18:00+20s4650100 0.0 1012514
21:00+18sse366886 0.0 1012206
19 september, sun
sun1900:00+17sse3778100 0.2 1012220
03:00+17sse247699 0.3 1011112
06:00+17se2372100 0.1 101196
09:00+19ssw5664100 0.1 1011679
12:00+17ssw137468 0.5 1011329
15:00+19sw3666100 0.6 1010561
18:00+18w1274100 0.7 1009143
21:00+16s34834 0.8 100954
20 september, mon
mon2000:00+15ssw410920 1.1 1009181
03:00+14sw35910 1.1 100887
06:00+13sw379084 0.0 1009127
09:00+18wsw586873 0.0 1009409
12:00+23wsw583798 0.0 10091665
15:00+22sw121049100 0.2 10091138
18:00+18ssw3769100 0.9 1009546
21:00+15sw4992100 3.1 1009581